owner,sensor,date,latitude,longitude,vertical_datum,sea_water_temperature,qcFlag 
ENP,ioos.station.NOAA.NDBC:LMDF1:1,2017-11-01T00:00:00Z,25.1760,-80.6330,1.0,21.96,2 
ENP,ioos.station.NOAA.NDBC:LMDF1:1,2017-11-01T01:00:00Z,25.1760,-80.6330,1.0,22.09,2 
ENP,ioos.station.NOAA.NDBC:LMDF1:1,2017-11-01T03:00:00Z,25.1760,-80.6330,1.0,22.26,2 
ENP,ioos.station.NOAA.NDBC:LMDF1:1,2017-11-01T04:00:00Z,25.1760,-80.6330,1.0,22.22,2 
ENP,ioos.station.NOAA.NDBC:LMDF1:1,2017-11-01T07:00:00Z,25.1760,-80.6330,1.0,22.22,2 
ENP,ioos.station.NOAA.NDBC:LMDF1:1,2017-11-01T08:00:00Z,25.1760,-80.6330,1.0,22.2,2 
ENP,ioos.station.NOAA.NDBC:LMDF1:1,2017-11-01T09:00:00Z,25.1760,-80.6330,1.0,22.24,2 
ENP,ioos.station.NOAA.NDBC:LMDF1:1,2017-11-01T12:00:00Z,25.1760,-80.6330,1.0,22.06,2 
ENP,ioos.station.NOAA.NDBC:LMDF1:1,2017-11-01T13:00:00Z,25.1760,-80.6330,1.0,21.77,2 
ENP,ioos.station.NOAA.NDBC:LMDF1:1,2017-11-01T14:00:00Z,25.1760,-80.6330,1.0,21.92,2 
ENP,ioos.station.NOAA.NDBC:LMDF1:1,2017-11-01T15:00:00Z,25.1760,-80.6330,1.0,21.98,2 
ENP,ioos.station.NOAA.NDBC:LMDF1:1,2017-11-01T16:00:00Z,25.1760,-80.6330,1.0,22.38,2 
ENP,ioos.station.NOAA.NDBC:LMDF1:1,2017-11-01T17:00:00Z,25.1760,-80.6330,1.0,22.81,2 
ENP,ioos.station.NOAA.NDBC:LMDF1:1,2017-11-01T18:00:00Z,25.1760,-80.6330,1.0,23.31,2 
ENP,ioos.station.NOAA.NDBC:LMDF1:1,2017-11-01T19:00:00Z,25.1760,-80.6330,1.0,23.89,2 
ENP,ioos.station.NOAA.NDBC:LMDF1:1,2017-11-01T20:00:00Z,25.1760,-80.6330,1.0,23.93,2 
ENP,ioos.station.NOAA.NDBC:LMDF1:1,2017-11-01T21:00:00Z,25.1760,-80.6330,1.0,23.78,2 
ENP,ioos.station.NOAA.NDBC:LMDF1:1,2017-11-01T22:00:00Z,25.1760,-80.6330,1.0,23.9,2 
ENP,ioos.station.NOAA.NDBC:LMDF1:1,2017-11-01T23:00:00Z,25.1760,-80.6330,1.0,23.24,2 
ENP,ioos.station.NOAA.NDBC:LMDF1:1,2017-11-02T00:00:00Z,25.1760,-80.6330,1.0,23.24,2 
ENP,ioos.station.NOAA.NDBC:LMDF1:1,2017-11-02T01:00:00Z,25.1760,-80.6330,1.0,23.26,2 
ENP,ioos.station.NOAA.NDBC:LMDF1:1,2017-11-02T03:00:00Z,25.1760,-80.6330,1.0,23.37,2 
ENP,ioos.station.NOAA.NDBC:LMDF1:1,2017-11-02T04:00:00Z,25.1760,-80.6330,1.0,23.34,2 
ENP,ioos.station.NOAA.NDBC:LMDF1:1,2017-11-02T06:00:00Z,25.1760,-80.6330,1.0,23.29,2 
ENP,ioos.station.NOAA.NDBC:LMDF1:1,2017-11-02T07:00:00Z,25.1760,-80.6330,1.0,23.23,2 
ENP,ioos.station.NOAA.NDBC:LMDF1:1,2017-11-02T08:00:00Z,25.1760,-80.6330,1.0,23.16,2 
ENP,ioos.station.NOAA.NDBC:LMDF1:1,2017-11-02T09:00:00Z,25.1760,-80.6330,1.0,23.14,2 
ENP,ioos.station.NOAA.NDBC:LMDF1:1,2017-11-02T11:00:00Z,25.1760,-80.6330,1.0,23.05,2 
ENP,ioos.station.NOAA.NDBC:LMDF1:1,2017-11-02T12:00:00Z,25.1760,-80.6330,1.0,22.97,2 
ENP,ioos.station.NOAA.NDBC:LMDF1:1,2017-11-02T13:00:00Z,25.1760,-80.6330,1.0,22.93,2 
ENP,ioos.station.NOAA.NDBC:LMDF1:1,2017-11-02T14:00:00Z,25.1760,-80.6330,1.0,22.99,2 
ENP,ioos.station.NOAA.NDBC:LMDF1:1,2017-11-02T15:00:00Z,25.1760,-80.6330,1.0,23.17,2 
ENP,ioos.station.NOAA.NDBC:LMDF1:1,2017-11-02T16:00:00Z,25.1760,-80.6330,1.0,23.3,2 
ENP,ioos.station.NOAA.NDBC:LMDF1:1,2017-11-02T17:00:00Z,25.1760,-80.6330,1.0,23.45,2 
ENP,ioos.station.NOAA.NDBC:LMDF1:1,2017-11-02T18:00:00Z,25.1760,-80.6330,1.0,23.92,2 
ENP,ioos.station.NOAA.NDBC:LMDF1:1,2017-11-02T19:00:00Z,25.1760,-80.6330,1.0,24.03,2 
ENP,ioos.station.NOAA.NDBC:LMDF1:1,2017-11-02T20:00:00Z,25.1760,-80.6330,1.0,23.98,2 
ENP,ioos.station.NOAA.NDBC:LMDF1:1,2017-11-02T21:00:00Z,25.1760,-80.6330,1.0,23.94,2 
ENP,ioos.station.NOAA.NDBC:LMDF1:1,2017-11-02T22:00:00Z,25.1760,-80.6330,1.0,23.86,2 
ENP,ioos.station.NOAA.NDBC:LMDF1:1,2017-11-02T23:00:00Z,25.1760,-80.6330,1.0,23.84,2 
ENP,ioos.station.NOAA.NDBC:LMDF1:1,2017-11-03T00:00:00Z,25.1760,-80.6330,1.0,24.49,2 
ENP,ioos.station.NOAA.NDBC:LMDF1:1,2017-11-03T01:00:00Z,25.1760,-80.6330,1.0,24.09,2 
ENP,ioos.station.NOAA.NDBC:LMDF1:1,2017-11-03T03:00:00Z,25.1760,-80.6330,1.0,23.91,2 
ENP,ioos.station.NOAA.NDBC:LMDF1:1,2017-11-03T04:00:00Z,25.1760,-80.6330,1.0,23.66,2 
ENP,ioos.station.NOAA.NDBC:LMDF1:1,2017-11-03T06:00:00Z,25.1760,-80.6330,1.0,23.64,2 
ENP,ioos.station.NOAA.NDBC:LMDF1:1,2017-11-03T07:00:00Z,25.1760,-80.6330,1.0,23.71,2 
ENP,ioos.station.NOAA.NDBC:LMDF1:1,2017-11-03T08:00:00Z,25.1760,-80.6330,1.0,23.67,2 
ENP,ioos.station.NOAA.NDBC:LMDF1:1,2017-11-03T09:00:00Z,25.1760,-80.6330,1.0,23.6,2 
ENP,ioos.station.NOAA.NDBC:LMDF1:1,2017-11-03T11:00:00Z,25.1760,-80.6330,1.0,23.6,2 
ENP,ioos.station.NOAA.NDBC:LMDF1:1,2017-11-03T12:00:00Z,25.1760,-80.6330,1.0,23.57,2 
ENP,ioos.station.NOAA.NDBC:LMDF1:1,2017-11-03T13:00:00Z,25.1760,-80.6330,1.0,23.55,2 
ENP,ioos.station.NOAA.NDBC:LMDF1:1,2017-11-03T14:00:00Z,25.1760,-80.6330,1.0,23.6,2 
ENP,ioos.station.NOAA.NDBC:LMDF1:1,2017-11-03T15:00:00Z,25.1760,-80.6330,1.0,23.72,2 
ENP,ioos.station.NOAA.NDBC:LMDF1:1,2017-11-03T16:00:00Z,25.1760,-80.6330,1.0,23.93,2 
ENP,ioos.station.NOAA.NDBC:LMDF1:1,2017-11-03T17:00:00Z,25.1760,-80.6330,1.0,24.09,2 
ENP,ioos.station.NOAA.NDBC:LMDF1:1,2017-11-03T18:00:00Z,25.1760,-80.6330,1.0,24.38,2 
ENP,ioos.station.NOAA.NDBC:LMDF1:1,2017-11-03T19:00:00Z,25.1760,-80.6330,1.0,24.83,2 
ENP,ioos.station.NOAA.NDBC:LMDF1:1,2017-11-03T20:00:00Z,25.1760,-80.6330,1.0,24.6,2 
ENP,ioos.station.NOAA.NDBC:LMDF1:1,2017-11-03T21:00:00Z,25.1760,-80.6330,1.0,24.7,2 
ENP,ioos.station.NOAA.NDBC:LMDF1:1,2017-11-03T22:00:00Z,25.1760,-80.6330,1.0,25.03,2 
ENP,ioos.station.NOAA.NDBC:LMDF1:1,2017-11-03T23:00:00Z,25.1760,-80.6330,1.0,24.92,2 
ENP,ioos.station.NOAA.NDBC:LMDF1:1,2017-11-04T00:00:00Z,25.1760,-80.6330,1.0,24.97,2 
ENP,ioos.station.NOAA.NDBC:LMDF1:1,2017-11-04T01:00:00Z,25.1760,-80.6330,1.0,24.56,2 
ENP,ioos.station.NOAA.NDBC:LMDF1:1,2017-11-04T04:00:00Z,25.1760,-80.6330,1.0,24.43,2 
ENP,ioos.station.NOAA.NDBC:LMDF1:1,2017-11-04T07:00:00Z,25.1760,-80.6330,1.0,24.23,2 
ENP,ioos.station.NOAA.NDBC:LMDF1:1,2017-11-04T08:00:00Z,25.1760,-80.6330,1.0,24.2,2 
ENP,ioos.station.NOAA.NDBC:LMDF1:1,2017-11-04T09:00:00Z,25.1760,-80.6330,1.0,24.19,2 
ENP,ioos.station.NOAA.NDBC:LMDF1:1,2017-11-04T11:00:00Z,25.1760,-80.6330,1.0,24.22,2 
ENP,ioos.station.NOAA.NDBC:LMDF1:1,2017-11-04T12:00:00Z,25.1760,-80.6330,1.0,24.18,2 
ENP,ioos.station.NOAA.NDBC:LMDF1:1,2017-11-04T13:00:00Z,25.1760,-80.6330,1.0,24.2,2 
ENP,ioos.station.NOAA.NDBC:LMDF1:1,2017-11-04T14:00:00Z,25.1760,-80.6330,1.0,24.25,2 
ENP,ioos.station.NOAA.NDBC:LMDF1:1,2017-11-04T15:00:00Z,25.1760,-80.6330,1.0,24.4,2 
ENP,ioos.station.NOAA.NDBC:LMDF1:1,2017-11-04T16:00:00Z,25.1760,-80.6330,1.0,24.76,2 
ENP,ioos.station.NOAA.NDBC:LMDF1:1,2017-11-04T17:00:00Z,25.1760,-80.6330,1.0,25.06,2 
ENP,ioos.station.NOAA.NDBC:LMDF1:1,2017-11-04T18:00:00Z,25.1760,-80.6330,1.0,24.94,2 
ENP,ioos.station.NOAA.NDBC:LMDF1:1,2017-11-04T19:00:00Z,25.1760,-80.6330,1.0,25.0,2 
ENP,ioos.station.NOAA.NDBC:LMDF1:1,2017-11-04T20:00:00Z,25.1760,-80.6330,1.0,25.29,2 
ENP,ioos.station.NOAA.NDBC:LMDF1:1,2017-11-04T21:00:00Z,25.1760,-80.6330,1.0,25.3,2 
ENP,ioos.station.NOAA.NDBC:LMDF1:1,2017-11-04T22:00:00Z,25.1760,-80.6330,1.0,25.71,2 
ENP,ioos.station.NOAA.NDBC:LMDF1:1,2017-11-04T23:00:00Z,25.1760,-80.6330,1.0,25.73,2 
ENP,ioos.station.NOAA.NDBC:LMDF1:1,2017-11-05T00:00:00Z,25.1760,-80.6330,1.0,25.7,2 
ENP,ioos.station.NOAA.NDBC:LMDF1:1,2017-11-05T01:00:00Z,25.1760,-80.6330,1.0,25.68,2 
ENP,ioos.station.NOAA.NDBC:LMDF1:1,2017-11-05T04:00:00Z,25.1760,-80.6330,1.0,25.56,2 
ENP,ioos.station.NOAA.NDBC:LMDF1:1,2017-11-05T05:00:00Z,25.1760,-80.6330,1.0,25.43,2 
ENP,ioos.station.NOAA.NDBC:LMDF1:1,2017-11-05T08:00:00Z,25.1760,-80.6330,1.0,25.23,2 
ENP,ioos.station.NOAA.NDBC:LMDF1:1,2017-11-05T09:00:00Z,25.1760,-80.6330,1.0,25.22,2 
ENP,ioos.station.NOAA.NDBC:LMDF1:1,2017-11-05T10:00:00Z,25.1760,-80.6330,1.0,25.1,2 
ENP,ioos.station.NOAA.NDBC:LMDF1:1,2017-11-05T13:00:00Z,25.1760,-80.6330,1.0,25.07,2 
ENP,ioos.station.NOAA.NDBC:LMDF1:1,2017-11-05T14:00:00Z,25.1760,-80.6330,1.0,25.07,2 
ENP,ioos.station.NOAA.NDBC:LMDF1:1,2017-11-05T15:00:00Z,25.1760,-80.6330,1.0,25.17,2 
ENP,ioos.station.NOAA.NDBC:LMDF1:1,2017-11-05T16:00:00Z,25.1760,-80.6330,1.0,25.29,2 
ENP,ioos.station.NOAA.NDBC:LMDF1:1,2017-11-05T17:00:00Z,25.1760,-80.6330,1.0,25.45,2 
ENP,ioos.station.NOAA.NDBC:LMDF1:1,2017-11-05T18:00:00Z,25.1760,-80.6330,1.0,25.76,2 
ENP,ioos.station.NOAA.NDBC:LMDF1:1,2017-11-05T19:00:00Z,25.1760,-80.6330,1.0,26.46,2 
ENP,ioos.station.NOAA.NDBC:LMDF1:1,2017-11-05T20:00:00Z,25.1760,-80.6330,1.0,26.36,2 
ENP,ioos.station.NOAA.NDBC:LMDF1:1,2017-11-05T21:00:00Z,25.1760,-80.6330,1.0,26.41,2 
ENP,ioos.station.NOAA.NDBC:LMDF1:1,2017-11-05T22:00:00Z,25.1760,-80.6330,1.0,26.95,2 
ENP,ioos.station.NOAA.NDBC:LMDF1:1,2017-11-05T23:00:00Z,25.1760,-80.6330,1.0,26.96,2 
ENP,ioos.station.NOAA.NDBC:LMDF1:1,2017-11-06T00:00:00Z,25.1760,-80.6330,1.0,26.81,2 
ENP,ioos.station.NOAA.NDBC:LMDF1:1,2017-11-06T01:00:00Z,25.1760,-80.6330,1.0,26.77,2 
ENP,ioos.station.NOAA.NDBC:LMDF1:1,2017-11-06T02:00:00Z,25.1760,-80.6330,1.0,26.38,2 
ENP,ioos.station.NOAA.NDBC:LMDF1:1,2017-11-06T04:00:00Z,25.1760,-80.6330,1.0,26.32,2 
ENP,ioos.station.NOAA.NDBC:LMDF1:1,2017-11-06T05:00:00Z,25.1760,-80.6330,1.0,26.2,2 
ENP,ioos.station.NOAA.NDBC:LMDF1:1,2017-11-06T07:00:00Z,25.1760,-80.6330,1.0,25.72,2 
ENP,ioos.station.NOAA.NDBC:LMDF1:1,2017-11-06T08:00:00Z,25.1760,-80.6330,1.0,25.76,2 
ENP,ioos.station.NOAA.NDBC:LMDF1:1,2017-11-06T09:00:00Z,25.1760,-80.6330,1.0,25.82,2 
ENP,ioos.station.NOAA.NDBC:LMDF1:1,2017-11-06T10:00:00Z,25.1760,-80.6330,1.0,25.74,2 
ENP,ioos.station.NOAA.NDBC:LMDF1:1,2017-11-06T12:00:00Z,25.1760,-80.6330,1.0,25.75,2 
ENP,ioos.station.NOAA.NDBC:LMDF1:1,2017-11-06T13:00:00Z,25.1760,-80.6330,1.0,25.73,2 
ENP,ioos.station.NOAA.NDBC:LMDF1:1,2017-11-06T14:00:00Z,25.1760,-80.6330,1.0,25.81,2 
ENP,ioos.station.NOAA.NDBC:LMDF1:1,2017-11-06T15:00:00Z,25.1760,-80.6330,1.0,25.91,2 
ENP,ioos.station.NOAA.NDBC:LMDF1:1,2017-11-06T16:00:00Z,25.1760,-80.6330,1.0,26.1,2 
ENP,ioos.station.NOAA.NDBC:LMDF1:1,2017-11-06T17:00:00Z,25.1760,-80.6330,1.0,26.36,2 
ENP,ioos.station.NOAA.NDBC:LMDF1:1,2017-11-06T18:00:00Z,25.1760,-80.6330,1.0,26.61,2 
ENP,ioos.station.NOAA.NDBC:LMDF1:1,2017-11-06T19:00:00Z,25.1760,-80.6330,1.0,27.04,2 
ENP,ioos.station.NOAA.NDBC:LMDF1:1,2017-11-06T20:00:00Z,25.1760,-80.6330,1.0,27.58,2 
ENP,ioos.station.NOAA.NDBC:LMDF1:1,2017-11-06T21:00:00Z,25.1760,-80.6330,1.0,27.27,2 
ENP,ioos.station.NOAA.NDBC:LMDF1:1,2017-11-06T22:00:00Z,25.1760,-80.6330,1.0,27.41,2 
ENP,ioos.station.NOAA.NDBC:LMDF1:1,2017-11-06T23:00:00Z,25.1760,-80.6330,1.0,27.41,2 
ENP,ioos.station.NOAA.NDBC:LMDF1:1,2017-11-07T00:00:00Z,25.1760,-80.6330,1.0,27.32,2 
ENP,ioos.station.NOAA.NDBC:LMDF1:1,2017-11-07T01:00:00Z,25.1760,-80.6330,1.0,27.36,2 
ENP,ioos.station.NOAA.NDBC:LMDF1:1,2017-11-07T02:00:00Z,25.1760,-80.6330,1.0,27.48,2 
ENP,ioos.station.NOAA.NDBC:LMDF1:1,2017-11-07T04:00:00Z,25.1760,-80.6330,1.0,27.31,2 
ENP,ioos.station.NOAA.NDBC:LMDF1:1,2017-11-07T05:00:00Z,25.1760,-80.6330,1.0,27.07,2 
ENP,ioos.station.NOAA.NDBC:LMDF1:1,2017-11-07T07:00:00Z,25.1760,-80.6330,1.0,26.91,2 
ENP,ioos.station.NOAA.NDBC:LMDF1:1,2017-11-07T08:00:00Z,25.1760,-80.6330,1.0,26.94,2 
ENP,ioos.station.NOAA.NDBC:LMDF1:1,2017-11-07T09:00:00Z,25.1760,-80.6330,1.0,27.02,2 
ENP,ioos.station.NOAA.NDBC:LMDF1:1,2017-11-07T10:00:00Z,25.1760,-80.6330,1.0,26.93,2 
ENP,ioos.station.NOAA.NDBC:LMDF1:1,2017-11-07T12:00:00Z,25.1760,-80.6330,1.0,27.04,2 
ENP,ioos.station.NOAA.NDBC:LMDF1:1,2017-11-07T13:00:00Z,25.1760,-80.6330,1.0,27.09,2 
ENP,ioos.station.NOAA.NDBC:LMDF1:1,2017-11-07T14:00:00Z,25.1760,-80.6330,1.0,27.1,2 
ENP,ioos.station.NOAA.NDBC:LMDF1:1,2017-11-07T15:00:00Z,25.1760,-80.6330,1.0,27.21,2 
ENP,ioos.station.NOAA.NDBC:LMDF1:1,2017-11-07T16:00:00Z,25.1760,-80.6330,1.0,27.18,2 
ENP,ioos.station.NOAA.NDBC:LMDF1:1,2017-11-07T17:00:00Z,25.1760,-80.6330,1.0,27.29,2 
ENP,ioos.station.NOAA.NDBC:LMDF1:1,2017-11-07T18:00:00Z,25.1760,-80.6330,1.0,27.65,2 
ENP,ioos.station.NOAA.NDBC:LMDF1:1,2017-11-07T19:00:00Z,25.1760,-80.6330,1.0,28.15,2 
ENP,ioos.station.NOAA.NDBC:LMDF1:1,2017-11-07T20:00:00Z,25.1760,-80.6330,1.0,28.41,2 
ENP,ioos.station.NOAA.NDBC:LMDF1:1,2017-11-07T21:00:00Z,25.1760,-80.6330,1.0,28.44,2 
ENP,ioos.station.NOAA.NDBC:LMDF1:1,2017-11-07T22:00:00Z,25.1760,-80.6330,1.0,28.27,2 
ENP,ioos.station.NOAA.NDBC:LMDF1:1,2017-11-07T23:00:00Z,25.1760,-80.6330,1.0,28.18,2 
ENP,ioos.station.NOAA.NDBC:LMDF1:1,2017-11-08T00:00:00Z,25.1760,-80.6330,1.0,28.09,2 
ENP,ioos.station.NOAA.NDBC:LMDF1:1,2017-11-08T01:00:00Z,25.1760,-80.6330,1.0,27.87,2 
ENP,ioos.station.NOAA.NDBC:LMDF1:1,2017-11-08T02:00:00Z,25.1760,-80.6330,1.0,27.82,2 
ENP,ioos.station.NOAA.NDBC:LMDF1:1,2017-11-08T05:00:00Z,25.1760,-80.6330,1.0,27.49,2 
ENP,ioos.station.NOAA.NDBC:LMDF1:1,2017-11-08T07:00:00Z,25.1760,-80.6330,1.0,27.52,2 
ENP,ioos.station.NOAA.NDBC:LMDF1:1,2017-11-08T08:00:00Z,25.1760,-80.6330,1.0,27.49,2 
ENP,ioos.station.NOAA.NDBC:LMDF1:1,2017-11-08T09:00:00Z,25.1760,-80.6330,1.0,27.53,2 
ENP,ioos.station.NOAA.NDBC:LMDF1:1,2017-11-08T10:00:00Z,25.1760,-80.6330,1.0,27.18,2 
ENP,ioos.station.NOAA.NDBC:LMDF1:1,2017-11-08T12:00:00Z,25.1760,-80.6330,1.0,27.4,2 
ENP,ioos.station.NOAA.NDBC:LMDF1:1,2017-11-08T13:00:00Z,25.1760,-80.6330,1.0,27.36,2 
ENP,ioos.station.NOAA.NDBC:LMDF1:1,2017-11-08T14:00:00Z,25.1760,-80.6330,1.0,27.63,2 
ENP,ioos.station.NOAA.NDBC:LMDF1:1,2017-11-08T15:00:00Z,25.1760,-80.6330,1.0,27.8,2 
ENP,ioos.station.NOAA.NDBC:LMDF1:1,2017-11-08T16:00:00Z,25.1760,-80.6330,1.0,27.94,2 
ENP,ioos.station.NOAA.NDBC:LMDF1:1,2017-11-08T17:00:00Z,25.1760,-80.6330,1.0,28.23,2 
ENP,ioos.station.NOAA.NDBC:LMDF1:1,2017-11-08T18:00:00Z,25.1760,-80.6330,1.0,28.26,2 
ENP,ioos.station.NOAA.NDBC:LMDF1:1,2017-11-08T19:00:00Z,25.1760,-80.6330,1.0,28.77,2 
ENP,ioos.station.NOAA.NDBC:LMDF1:1,2017-11-08T20:00:00Z,25.1760,-80.6330,1.0,28.72,2 
ENP,ioos.station.NOAA.NDBC:LMDF1:1,2017-11-08T21:00:00Z,25.1760,-80.6330,1.0,28.68,2 
ENP,ioos.station.NOAA.NDBC:LMDF1:1,2017-11-08T22:00:00Z,25.1760,-80.6330,1.0,28.35,2 
ENP,ioos.station.NOAA.NDBC:LMDF1:1,2017-11-08T23:00:00Z,25.1760,-80.6330,1.0,28.49,2 
ENP,ioos.station.NOAA.NDBC:LMDF1:1,2017-11-09T00:00:00Z,25.1760,-80.6330,1.0,28.38,2 
ENP,ioos.station.NOAA.NDBC:LMDF1:1,2017-11-09T01:00:00Z,25.1760,-80.6330,1.0,28.11,2 
ENP,ioos.station.NOAA.NDBC:LMDF1:1,2017-11-09T02:00:00Z,25.1760,-80.6330,1.0,27.9,2 
ENP,ioos.station.NOAA.NDBC:LMDF1:1,2017-11-09T04:00:00Z,25.1760,-80.6330,1.0,27.84,2 
ENP,ioos.station.NOAA.NDBC:LMDF1:1,2017-11-09T05:00:00Z,25.1760,-80.6330,1.0,27.59,2 
ENP,ioos.station.NOAA.NDBC:LMDF1:1,2017-11-09T07:00:00Z,25.1760,-80.6330,1.0,27.45,2 
ENP,ioos.station.NOAA.NDBC:LMDF1:1,2017-11-09T08:00:00Z,25.1760,-80.6330,1.0,26.93,2 
ENP,ioos.station.NOAA.NDBC:LMDF1:1,2017-11-09T09:00:00Z,25.1760,-80.6330,1.0,26.86,2 
ENP,ioos.station.NOAA.NDBC:LMDF1:1,2017-11-09T10:00:00Z,25.1760,-80.6330,1.0,27.03,2 
ENP,ioos.station.NOAA.NDBC:LMDF1:1,2017-11-09T12:00:00Z,25.1760,-80.6330,1.0,27.24,2 
ENP,ioos.station.NOAA.NDBC:LMDF1:1,2017-11-09T13:00:00Z,25.1760,-80.6330,1.0,27.21,2 
ENP,ioos.station.NOAA.NDBC:LMDF1:1,2017-11-09T14:00:00Z,25.1760,-80.6330,1.0,27.24,2 
ENP,ioos.station.NOAA.NDBC:LMDF1:1,2017-11-09T15:00:00Z,25.1760,-80.6330,1.0,27.26,2 
ENP,ioos.station.NOAA.NDBC:LMDF1:1,2017-11-09T16:00:00Z,25.1760,-80.6330,1.0,27.33,2 
ENP,ioos.station.NOAA.NDBC:LMDF1:1,2017-11-09T17:00:00Z,25.1760,-80.6330,1.0,27.45,2 
ENP,ioos.station.NOAA.NDBC:LMDF1:1,2017-11-09T18:00:00Z,25.1760,-80.6330,1.0,27.85,2 
ENP,ioos.station.NOAA.NDBC:LMDF1:1,2017-11-09T19:00:00Z,25.1760,-80.6330,1.0,27.99,2 
ENP,ioos.station.NOAA.NDBC:LMDF1:1,2017-11-09T20:00:00Z,25.1760,-80.6330,1.0,28.29,2 
ENP,ioos.station.NOAA.NDBC:LMDF1:1,2017-11-09T21:00:00Z,25.1760,-80.6330,1.0,28.38,2 
ENP,ioos.station.NOAA.NDBC:LMDF1:1,2017-11-09T22:00:00Z,25.1760,-80.6330,1.0,28.24,2 
ENP,ioos.station.NOAA.NDBC:LMDF1:1,2017-11-09T23:00:00Z,25.1760,-80.6330,1.0,28.31,2 
ENP,ioos.station.NOAA.NDBC:LMDF1:1,2017-11-10T00:00:00Z,25.1760,-80.6330,1.0,28.24,2 
ENP,ioos.station.NOAA.NDBC:LMDF1:1,2017-11-10T01:00:00Z,25.1760,-80.6330,1.0,28.12,2 
ENP,ioos.station.NOAA.NDBC:LMDF1:1,2017-11-10T02:00:00Z,25.1760,-80.6330,1.0,28.06,2 
ENP,ioos.station.NOAA.NDBC:LMDF1:1,2017-11-10T04:00:00Z,25.1760,-80.6330,1.0,27.9,2 
ENP,ioos.station.NOAA.NDBC:LMDF1:1,2017-11-10T05:00:00Z,25.1760,-80.6330,1.0,27.86,2 
ENP,ioos.station.NOAA.NDBC:LMDF1:1,2017-11-10T07:00:00Z,25.1760,-80.6330,1.0,27.74,2 
ENP,ioos.station.NOAA.NDBC:LMDF1:1,2017-11-10T08:00:00Z,25.1760,-80.6330,1.0,27.74,2 
ENP,ioos.station.NOAA.NDBC:LMDF1:1,2017-11-10T09:00:00Z,25.1760,-80.6330,1.0,27.67,2 
ENP,ioos.station.NOAA.NDBC:LMDF1:1,2017-11-10T10:00:00Z,25.1760,-80.6330,1.0,27.54,2 
ENP,ioos.station.NOAA.NDBC:LMDF1:1,2017-11-10T12:00:00Z,25.1760,-80.6330,1.0,26.69,2 
ENP,ioos.station.NOAA.NDBC:LMDF1:1,2017-11-10T13:00:00Z,25.1760,-80.6330,1.0,26.79,2 
ENP,ioos.station.NOAA.NDBC:LMDF1:1,2017-11-10T14:00:00Z,25.1760,-80.6330,1.0,26.91,2 
ENP,ioos.station.NOAA.NDBC:LMDF1:1,2017-11-10T15:00:00Z,25.1760,-80.6330,1.0,27.43,2 
ENP,ioos.station.NOAA.NDBC:LMDF1:1,2017-11-10T16:00:00Z,25.1760,-80.6330,1.0,27.14,2 
ENP,ioos.station.NOAA.NDBC:LMDF1:1,2017-11-10T17:00:00Z,25.1760,-80.6330,1.0,27.46,2 
ENP,ioos.station.NOAA.NDBC:LMDF1:1,2017-11-10T18:00:00Z,25.1760,-80.6330,1.0,27.66,2 
ENP,ioos.station.NOAA.NDBC:LMDF1:1,2017-11-10T19:00:00Z,25.1760,-80.6330,1.0,27.86,2 
ENP,ioos.station.NOAA.NDBC:LMDF1:1,2017-11-10T20:00:00Z,25.1760,-80.6330,1.0,28.05,2 
ENP,ioos.station.NOAA.NDBC:LMDF1:1,2017-11-10T21:00:00Z,25.1760,-80.6330,1.0,28.1,2 
ENP,ioos.station.NOAA.NDBC:LMDF1:1,2017-11-10T22:00:00Z,25.1760,-80.6330,1.0,27.76,2 
ENP,ioos.station.NOAA.NDBC:LMDF1:1,2017-11-10T23:00:00Z,25.1760,-80.6330,1.0,27.97,2 
ENP,ioos.station.NOAA.NDBC:LMDF1:1,2017-11-11T00:00:00Z,25.1760,-80.6330,1.0,27.84,2 
ENP,ioos.station.NOAA.NDBC:LMDF1:1,2017-11-11T01:00:00Z,25.1760,-80.6330,1.0,27.17,2 
ENP,ioos.station.NOAA.NDBC:LMDF1:1,2017-11-11T02:00:00Z,25.1760,-80.6330,1.0,27.63,2 
ENP,ioos.station.NOAA.NDBC:LMDF1:1,2017-11-11T04:00:00Z,25.1760,-80.6330,1.0,27.51,2 
ENP,ioos.station.NOAA.NDBC:LMDF1:1,2017-11-11T05:00:00Z,25.1760,-80.6330,1.0,27.39,2 
ENP,ioos.station.NOAA.NDBC:LMDF1:1,2017-11-11T07:00:00Z,25.1760,-80.6330,1.0,27.19,2 
ENP,ioos.station.NOAA.NDBC:LMDF1:1,2017-11-11T08:00:00Z,25.1760,-80.6330,1.0,26.72,2 
ENP,ioos.station.NOAA.NDBC:LMDF1:1,2017-11-11T09:00:00Z,25.1760,-80.6330,1.0,26.59,2 
ENP,ioos.station.NOAA.NDBC:LMDF1:1,2017-11-11T10:00:00Z,25.1760,-80.6330,1.0,26.42,2 
ENP,ioos.station.NOAA.NDBC:LMDF1:1,2017-11-11T12:00:00Z,25.1760,-80.6330,1.0,26.08,2 
ENP,ioos.station.NOAA.NDBC:LMDF1:1,2017-11-11T13:00:00Z,25.1760,-80.6330,1.0,26.15,2 
ENP,ioos.station.NOAA.NDBC:LMDF1:1,2017-11-11T14:00:00Z,25.1760,-80.6330,1.0,26.06,2 
ENP,ioos.station.NOAA.NDBC:LMDF1:1,2017-11-11T15:00:00Z,25.1760,-80.6330,1.0,26.18,2 
ENP,ioos.station.NOAA.NDBC:LMDF1:1,2017-11-11T16:00:00Z,25.1760,-80.6330,1.0,26.37,2 
ENP,ioos.station.NOAA.NDBC:LMDF1:1,2017-11-11T17:00:00Z,25.1760,-80.6330,1.0,26.33,2 
ENP,ioos.station.NOAA.NDBC:LMDF1:1,2017-11-11T18:00:00Z,25.1760,-80.6330,1.0,26.59,2 
ENP,ioos.station.NOAA.NDBC:LMDF1:1,2017-11-11T19:00:00Z,25.1760,-80.6330,1.0,26.97,2 
ENP,ioos.station.NOAA.NDBC:LMDF1:1,2017-11-11T20:00:00Z,25.1760,-80.6330,1.0,26.87,2 
ENP,ioos.station.NOAA.NDBC:LMDF1:1,2017-11-11T21:00:00Z,25.1760,-80.6330,1.0,26.81,2 
ENP,ioos.station.NOAA.NDBC:LMDF1:1,2017-11-11T22:00:00Z,25.1760,-80.6330,1.0,26.97,2 
ENP,ioos.station.NOAA.NDBC:LMDF1:1,2017-11-11T23:00:00Z,25.1760,-80.6330,1.0,26.48,2 
ENP,ioos.station.NOAA.NDBC:LMDF1:1,2017-11-12T00:00:00Z,25.1760,-80.6330,1.0,26.73,2 
ENP,ioos.station.NOAA.NDBC:LMDF1:1,2017-11-12T01:00:00Z,25.1760,-80.6330,1.0,26.6,2 
ENP,ioos.station.NOAA.NDBC:LMDF1:1,2017-11-12T02:00:00Z,25.1760,-80.6330,1.0,26.28,2 
ENP,ioos.station.NOAA.NDBC:LMDF1:1,2017-11-12T05:00:00Z,25.1760,-80.6330,1.0,25.56,2 
ENP,ioos.station.NOAA.NDBC:LMDF1:1,2017-11-12T08:00:00Z,25.1760,-80.6330,1.0,25.89,2 
ENP,ioos.station.NOAA.NDBC:LMDF1:1,2017-11-12T09:00:00Z,25.1760,-80.6330,1.0,25.87,2 
ENP,ioos.station.NOAA.NDBC:LMDF1:1,2017-11-12T10:00:00Z,25.1760,-80.6330,1.0,25.77,2 
ENP,ioos.station.NOAA.NDBC:LMDF1:1,2017-11-12T13:00:00Z,25.1760,-80.6330,1.0,25.44,2 
ENP,ioos.station.NOAA.NDBC:LMDF1:1,2017-11-12T14:00:00Z,25.1760,-80.6330,1.0,25.61,2 
ENP,ioos.station.NOAA.NDBC:LMDF1:1,2017-11-12T15:00:00Z,25.1760,-80.6330,1.0,25.64,2 
ENP,ioos.station.NOAA.NDBC:LMDF1:1,2017-11-12T16:00:00Z,25.1760,-80.6330,1.0,25.84,2 
ENP,ioos.station.NOAA.NDBC:LMDF1:1,2017-11-12T17:00:00Z,25.1760,-80.6330,1.0,26.0,2 
ENP,ioos.station.NOAA.NDBC:LMDF1:1,2017-11-12T18:00:00Z,25.1760,-80.6330,1.0,25.88,2 
ENP,ioos.station.NOAA.NDBC:LMDF1:1,2017-11-12T19:00:00Z,25.1760,-80.6330,1.0,25.97,2 
ENP,ioos.station.NOAA.NDBC:LMDF1:1,2017-11-12T20:00:00Z,25.1760,-80.6330,1.0,26.12,2 
ENP,ioos.station.NOAA.NDBC:LMDF1:1,2017-11-12T21:00:00Z,25.1760,-80.6330,1.0,26.35,2 
ENP,ioos.station.NOAA.NDBC:LMDF1:1,2017-11-12T22:00:00Z,25.1760,-80.6330,1.0,26.14,2 
ENP,ioos.station.NOAA.NDBC:LMDF1:1,2017-11-12T23:00:00Z,25.1760,-80.6330,1.0,26.02,2 
ENP,ioos.station.NOAA.NDBC:LMDF1:1,2017-11-13T00:00:00Z,25.1760,-80.6330,1.0,26.1,2 
ENP,ioos.station.NOAA.NDBC:LMDF1:1,2017-11-13T01:00:00Z,25.1760,-80.6330,1.0,26.08,2 
ENP,ioos.station.NOAA.NDBC:LMDF1:1,2017-11-13T02:00:00Z,25.1760,-80.6330,1.0,26.09,2 
ENP,ioos.station.NOAA.NDBC:LMDF1:1,2017-11-13T04:00:00Z,25.1760,-80.6330,1.0,25.63,2 
ENP,ioos.station.NOAA.NDBC:LMDF1:1,2017-11-13T05:00:00Z,25.1760,-80.6330,1.0,25.99,2 
ENP,ioos.station.NOAA.NDBC:LMDF1:1,2017-11-13T07:00:00Z,25.1760,-80.6330,1.0,25.97,2 
ENP,ioos.station.NOAA.NDBC:LMDF1:1,2017-11-13T08:00:00Z,25.1760,-80.6330,1.0,25.87,2 
ENP,ioos.station.NOAA.NDBC:LMDF1:1,2017-11-13T09:00:00Z,25.1760,-80.6330,1.0,25.84,2 
ENP,ioos.station.NOAA.NDBC:LMDF1:1,2017-11-13T10:00:00Z,25.1760,-80.6330,1.0,25.74,2 
ENP,ioos.station.NOAA.NDBC:LMDF1:1,2017-11-13T12:00:00Z,25.1760,-80.6330,1.0,25.53,2 
ENP,ioos.station.NOAA.NDBC:LMDF1:1,2017-11-13T13:00:00Z,25.1760,-80.6330,1.0,25.47,2 
ENP,ioos.station.NOAA.NDBC:LMDF1:1,2017-11-13T14:00:00Z,25.1760,-80.6330,1.0,25.62,2 
ENP,ioos.station.NOAA.NDBC:LMDF1:1,2017-11-13T15:00:00Z,25.1760,-80.6330,1.0,25.76,2 
ENP,ioos.station.NOAA.NDBC:LMDF1:1,2017-11-13T16:00:00Z,25.1760,-80.6330,1.0,25.94,2 
ENP,ioos.station.NOAA.NDBC:LMDF1:1,2017-11-13T17:00:00Z,25.1760,-80.6330,1.0,26.14,2 
ENP,ioos.station.NOAA.NDBC:LMDF1:1,2017-11-13T18:00:00Z,25.1760,-80.6330,1.0,26.26,2 
ENP,ioos.station.NOAA.NDBC:LMDF1:1,2017-11-13T19:00:00Z,25.1760,-80.6330,1.0,26.52,2 
ENP,ioos.station.NOAA.NDBC:LMDF1:1,2017-11-13T20:00:00Z,25.1760,-80.6330,1.0,26.42,2 
ENP,ioos.station.NOAA.NDBC:LMDF1:1,2017-11-13T21:00:00Z,25.1760,-80.6330,1.0,26.36,2 
ENP,ioos.station.NOAA.NDBC:LMDF1:1,2017-11-13T22:00:00Z,25.1760,-80.6330,1.0,26.28,2 
ENP,ioos.station.NOAA.NDBC:LMDF1:1,2017-11-13T23:00:00Z,25.1760,-80.6330,1.0,26.26,2 
ENP,ioos.station.NOAA.NDBC:LMDF1:1,2017-11-14T00:00:00Z,25.1760,-80.6330,1.0,26.44,2 
ENP,ioos.station.NOAA.NDBC:LMDF1:1,2017-11-14T01:00:00Z,25.1760,-80.6330,1.0,26.39,2 
ENP,ioos.station.NOAA.NDBC:LMDF1:1,2017-11-14T02:00:00Z,25.1760,-80.6330,1.0,26.31,2 
ENP,ioos.station.NOAA.NDBC:LMDF1:1,2017-11-14T04:00:00Z,25.1760,-80.6330,1.0,26.24,2 
ENP,ioos.station.NOAA.NDBC:LMDF1:1,2017-11-14T05:00:00Z,25.1760,-80.6330,1.0,26.09,2 
ENP,ioos.station.NOAA.NDBC:LMDF1:1,2017-11-14T07:00:00Z,25.1760,-80.6330,1.0,26.02,2 
ENP,ioos.station.NOAA.NDBC:LMDF1:1,2017-11-14T08:00:00Z,25.1760,-80.6330,1.0,25.77,2 
ENP,ioos.station.NOAA.NDBC:LMDF1:1,2017-11-14T09:00:00Z,25.1760,-80.6330,1.0,25.85,2 
ENP,ioos.station.NOAA.NDBC:LMDF1:1,2017-11-14T10:00:00Z,25.1760,-80.6330,1.0,25.81,2 
ENP,ioos.station.NOAA.NDBC:LMDF1:1,2017-11-14T12:00:00Z,25.1760,-80.6330,1.0,25.77,2 
ENP,ioos.station.NOAA.NDBC:LMDF1:1,2017-11-14T13:00:00Z,25.1760,-80.6330,1.0,25.68,2 
ENP,ioos.station.NOAA.NDBC:LMDF1:1,2017-11-14T14:00:00Z,25.1760,-80.6330,1.0,25.79,2 
ENP,ioos.station.NOAA.NDBC:LMDF1:1,2017-11-14T15:00:00Z,25.1760,-80.6330,1.0,25.55,2 
ENP,ioos.station.NOAA.NDBC:LMDF1:1,2017-11-14T16:00:00Z,25.1760,-80.6330,1.0,25.71,2 
ENP,ioos.station.NOAA.NDBC:LMDF1:1,2017-11-14T17:00:00Z,25.1760,-80.6330,1.0,26.05,2 
ENP,ioos.station.NOAA.NDBC:LMDF1:1,2017-11-14T18:00:00Z,25.1760,-80.6330,1.0,26.57,2 